Location: Arbon
(43.0005°N, 0.7472°E)
Time: 11:07:32
(UTC+00:00)

Cosmos 1269 Rocket - Pass Details

Date: 22 April 2026
Orbit: 768 x 775 km, 74.1° (Epoch: 15 May)

Event Time Altitude Azimuth Distance (km) Brightness Sun altitude
Rises 21:01:59 0° 343° (NNW) 3,255 8.3 -21.9°
Reaches altitude 10° 21:04:25 10° 347° (NNW) 2,325 7.3 -22.2°
Maximum altitude 21:09:37 57° 67° (ENE) 907 4.2 -22.9°
Enters shadow 21:10:20 52° 99° (E) 954 4.1 -22.9°
